Regional Weather Roundup
Issued by NWS

Home | Current Version | Previous Version | Text Only | Print | Product List | Glossary Off
Versions: 1 2 3 4 5 6 7 8 9 10 11 12 13 14 15 16 17 18 19 20 21 22 23 24 25 26 27 28 29 30 31 32 33 34 35 36 37 38 39 40 41 42 43 44 45 46 47 48 49 50

045
ASUS45 KSLC 041510
RWRUT

UTAH REGIONAL WEATHER ROUNDUP
NATIONAL WEATHER SERVICE SALT LAKE CITY UT
800 AM MST SUN DEC 04 2016

UTZ001>011-023>025-041600-

NORTHERN UTAH

CITY           SKY/WX    TMP DP  RH WIND       PRES   REMARKS
BRIGHAM CITY     N/A     32  21  64 CALM      30.18S
HILL AFB       PTCLDY    24  16  72 E13       30.15F WCI  12
LOGAN          MOCLDY   N/A N/A N/A NE3       30.14F
OGDEN          PTCLDY    23  17  78 S8        30.15F WCI  14
SALT LAKE CITY MOCLDY    29  19  66 SE12      30.17F WCI  19
TOOELE VALLEY  PTCLDY    28  19  69 S15       30.17S WCI  17
WENDOVER       MOCLDY    21  12  68 CALM      30.15F
HEBER CITY     FOG       14  12  92 E3        30.20R VSB 1/4
WEST JORDAN    PTCLDY    29  22  75 S13       30.18S WCI  19

$$

UTZ011>015-024>027-041600-

CENTRAL/NORTHEAST UTAH

CITY           SKY/WX    TMP DP  RH WIND       PRES   REMARKS
PROVO AIRPORT  PTCLDY    19  15  84 E3        30.23F
MOAB/CANYONLAN CLEAR     23  16  74 SE5       30.22R WCI  17
DELTA          MOCLDY    18  14  86 NE3       30.21F
PRICE          CLEAR     18  12  77 NE3       30.18R
ROOSEVELT      CLOUDY    14  10  85 CALM      30.24R
VERNAL         CLOUDY    15  10  80 W5        30.21R WCI   8

$$

UTZ013>016-019>022-027-041600-

SOUTHERN UTAH

CITY           SKY/WX    TMP DP  RH WIND       PRES   REMARKS
BRYCE CANYON   NOT AVBL
CEDAR CITY     PTCLDY    14   9  80 CALM      30.17S
MILFORD        PTCLDY    13   9  84 S9        30.19R WCI   1
ST GEORGE      SUNNY     32  14  47 NE5       30.25R WCI  27
HANKSVILLE     PTCLDY    14  12  92 CALM      30.25S
BLANDING       CLEAR     22  13  69 NW7       30.26R WCI  13

$$

REGIONAL REPORTS     COLORADO/ARIZONA

CITY           SKY/WX    TMP DP  RH WIND       PRES   REMARKS
CRAIG, CO      CLOUDY    10   5  80 CALM      30.19S
GRAND JUNCTION CLOUDY    20  15  81 SE9       30.24R WCI   9
RIFLE, CO      CLOUDY    13   9  84 CALM      30.27R
MONTROSE, CO   CLOUDY    16   9  74 S7        30.27R WCI   6
CORTEZ, CO     CLOUDY    14  10  84 CALM      30.20R
COLORADO CITY    N/A     21  18  86 SE5       30.23S WCI  15
PAGE, AZ       CLEAR     29  11  47 SW3       30.23R
GRAND CANYON   PTCLDY    10   6  84 CALM      30.20R
KINGMAN, AZ    CLEAR     33  10  38 E5        30.17R WCI  29
FLAGSTAFF, AZ  CLEAR     28   5  37 E6        30.17S WCI  22

$$

REGIONAL REPORTS    NEVADA/IDAHO/WYOMING

CITY           SKY/WX    TMP DP  RH WIND       PRES   REMARKS
LAS VEGAS, NV  CLEAR     38  14  37 SW6       30.18R WCI  33
ELY, NY        CLEAR     12   5  73 S17       30.18S WCI  -5
ELKO, NV       CLOUDY    22  16  78 SE3       30.14S
POCATELLO, ID  CLOUDY    36  20  52 S15       30.04F WCI  27
BURLEY, ID     CLOUDY    36  18  48 SW15      30.03F WCI  27
FORT BRIDGER,    N/A     24  13  63 W13G18    30.09F WCI  12
EVANSTON, WY   CLOUDY    20  10  65 SW17      30.07F WCI   5
ROCK SPRINGS,  CLOUDY    24  14  65 SW21G30   30.06F WCI   9

$$




USA.gov is the U.S. government's official web portal to all federal, state and local government web resources and services.